Date String (YYYY-MM-DD hh:mm:ss) UTC,Instrument flags,absolute air pressure of the measurement (hPa),sample flow rate (lpm),inlet stack bypass flow (lpm),air temperature of the measurement (°C),ambient temperature measured by the external sensor (°C),aerosol sample conditioner tube jacket temperature (°C),OPC LED temperature (°C),internal box temperature (°C),relative humidity of the measurement (%),span deviation,mass concentration of particles derived from Lorenz-Mie calculation of OPC scattering (μg/m³),mass concentration of particles derived from Lorenz-Mie calculation of OPC scattering (μg/m³),mass concentration of particles derived from Lorenz-Mie calculation of OPC scattering (μg/m³)
DateTimeUTC,F1_M11,P_M11,Q1_M11,Q2_M11,T1_M11,T2_M11,T3_M11,T4_M11,T5_M11,U1_M11,ZSPAN_M11,X0_M11,X2_M11,X1_M11
2023-07-10 01:00:00,SystemResetWarning,0832.0,4.99,000.00,030.1,025.0,000.0,038.1,030.7,34.5,0000.0,0011.08,0007.13,0006.57
2023-07-10 01:01:00,SystemResetWarning,0831.9,5.01,000.00,030.1,025.2,000.0,038.1,030.6,35.3,0000.0,0011.78,0007.15,0006.58
2023-07-10 01:02:00,SystemResetWarning,0832.0,5.01,000.00,030.2,025.6,000.0,038.1,030.7,34.6,0000.0,0011.83,0007.17,0006.60
2023-07-10 01:03:00,SystemResetWarning,0832.0,4.98,000.00,030.3,026.1,000.0,038.2,030.8,33.7,0000.0,0011.77,0007.19,0006.61
2023-07-10 01:04:00,SystemResetWarning,0832.0,5.02,000.00,030.4,026.5,000.0,038.2,030.9,33.2,0000.0,0011.80,0007.20,0006.64
2023-07-10 01:05:00,SystemResetWarning,0832.0,5.00,000.00,030.4,027.0,000.0,038.2,031.0,33.4,0000.0,0011.85,0007.21,0006.65
2023-07-10 01:06:00,SystemResetWarning,0832.0,5.00,000.00,030.5,027.3,000.0,038.3,031.1,34.0,0000.0,0012.38,0007.28,0006.65
2023-07-10 01:07:00,SystemResetWarning,0832.0,5.00,000.00,030.5,027.6,000.0,038.4,031.1,33.9,0000.0,0012.19,0007.31,0006.67
2023-07-10 01:08:00,SystemResetWarning,0832.1,5.00,000.00,030.6,027.9,000.0,038.4,031.2,33.8,0000.0,0012.15,0007.31,0006.67
2023-07-10 01:09:00,SystemResetWarning,0832.1,5.01,000.00,030.6,027.9,000.0,038.4,031.3,33.7,0000.0,0011.91,0007.26,0006.66
2023-07-10 01:10:00,SystemResetWarning,0832.0,4.98,000.00,030.6,026.7,000.0,038.4,031.2,33.7,0000.0,0012.19,0007.23,0006.66
2023-07-10 01:11:00,SystemResetWarning,0832.0,5.01,000.00,030.6,025.3,000.0,038.3,031.0,33.2,0000.0,0012.88,0007.30,0006.67
2023-07-10 01:12:00,SystemResetWarning,0832.0,5.02,000.00,030.5,025.1,000.0,038.2,030.8,34.3,0000.0,0012.27,0007.32,0006.68
2023-07-10 01:13:00,SystemResetWarning,0832.0,5.00,000.00,030.3,025.3,000.0,038.3,030.6,34.3,0000.0,0012.13,0007.30,0006.69
2023-07-10 01:14:00,SystemResetWarning,0832.0,4.98,000.00,030.2,025.8,000.0,038.3,030.7,35.2,0000.0,0012.40,0007.29,0006.68
2023-07-10 01:15:00,SystemResetWarning,0832.1,5.02,000.00,030.3,026.3,000.0,038.3,030.9,34.8,0000.0,0013.03,0007.26,0006.65
2023-07-10 01:16:00,SystemResetWarning,0832.0,4.99,000.00,030.5,026.7,000.0,038.4,031.0,35.2,0000.0,0012.93,0007.24,0006.63
2023-07-10 01:17:00,SystemResetWarning,0832.1,5.01,000.00,030.7,027.1,000.0,038.4,031.2,34.0,0000.0,0012.83,0007.18,0006.62
2023-07-10 01:18:00,SystemResetWarning,0832.1,4.99,000.00,030.8,027.5,000.0,038.4,031.3,33.2,0000.0,0012.55,0007.14,0006.60
2023-07-10 01:19:00,SystemResetWarning,0832.1,5.02,000.00,031.0,027.8,000.0,038.5,031.3,33.2,-000.7,0012.82,0007.13,0006.60
2023-07-10 01:20:00,SystemResetWarning,0832.1,4.98,000.00,031.0,027.5,000.0,038.5,031.4,33.1,-000.3,0013.00,0007.14,0006.58
2023-07-10 01:21:00,SystemResetWarning,0832.1,5.01,000.00,031.1,026.0,000.0,038.4,031.2,32.3,0000.0,0012.64,0007.13,0006.57
2023-07-10 01:22:00,SystemResetWarning,0832.0,5.01,000.00,031.0,025.1,000.0,038.4,031.0,32.0,0000.0,0011.98,0007.08,0006.54
2023-07-10 01:23:00,SystemResetWarning,0832.1,5.01,000.00,030.9,025.1,000.0,038.4,030.8,32.2,0000.0,0012.79,0007.06,0006.50
2023-07-10 01:24:00,SystemResetWarning,0832.0,5.00,000.00,030.8,025.5,000.0,038.5,030.7,32.4,0000.0,0012.93,0007.01,0006.47
2023-07-10 01:25:00,SystemResetWarning,0832.1,5.00,000.00,030.7,025.9,000.0,038.6,030.8,32.5,0000.0,0013.15,0006.98,0006.44
2023-07-10 01:26:00,SystemResetWarning,0832.0,5.01,000.00,030.7,026.4,000.0,038.6,030.9,32.8,0000.0,0012.47,0006.97,0006.44
2023-07-10 01:27:00,SystemResetWarning,0832.0,5.00,000.00,030.7,026.8,000.0,038.6,031.0,32.9,0000.0,0012.58,0006.97,0006.45
2023-07-10 01:28:00,SystemResetWarning,0832.1,5.00,000.00,030.7,027.2,000.0,038.6,031.1,33.2,-000.6,0012.21,0006.98,0006.45
2023-07-10 01:29:00,SystemResetWarning,0832.1,4.98,000.00,030.7,027.5,000.0,038.7,031.2,33.7,-000.9,0012.26,0007.03,0006.45
2023-07-10 01:30:00,SystemResetWarning,0832.2,5.01,000.00,030.7,027.8,000.0,038.7,031.3,34.1,0000.0,0012.03,0007.02,0006.44
2023-07-10 01:31:00,SystemResetWarning,0832.1,5.00,000.00,030.7,027.8,000.0,038.7,031.3,34.2,0000.0,0011.72,0006.98,0006.44
2023-07-10 01:32:00,SystemResetWarning,0832.1,4.99,000.00,030.7,026.4,000.0,038.5,031.2,34.4,0000.0,0011.65,0006.97,0006.44
2023-07-10 01:33:00,SystemResetWarning,0832.1,5.00,000.00,030.6,025.2,000.0,038.4,030.9,34.7,0000.0,0011.64,0006.95,0006.45
2023-07-10 01:34:00,SystemResetWarning,0832.0,4.99,000.00,030.5,025.0,000.0,038.4,030.7,35.1,0000.0,0010.97,0006.97,0006.46
2023-07-10 01:35:00,SystemResetWarning,0832.0,5.03,000.00,030.5,025.3,000.0,038.4,030.7,35.3,0000.0,0011.35,0007.00,0006.47
2023-07-10 01:36:00,SystemResetWarning,0832.0,4.99,000.00,030.7,025.8,000.0,038.4,030.9,35.1,-001.2,0011.03,0007.03,0006.50
2023-07-10 01:37:00,SystemResetWarning,0832.2,5.00,000.00,031.0,026.3,000.0,038.5,031.1,34.7,-001.0,0010.92,0007.09,0006.53
2023-07-10 01:38:00,SystemResetWarning,0832.2,4.98,000.00,031.1,026.7,000.0,038.5,031.2,34.3,-000.1,0011.03,0007.14,0006.57
2023-07-10 01:39:00,SystemResetWarning,0832.1,5.01,000.00,031.2,027.1,000.0,038.6,031.3,34.1,0000.0,0011.40,0007.18,0006.60
2023-07-10 01:40:00,SystemResetWarning,0832.2,5.02,000.00,031.3,027.5,000.0,038.7,031.3,34.0,0000.0,0011.48,0007.19,0006.64
2023-07-10 01:41:00,SystemResetWarning,0832.2,4.98,000.00,031.4,027.8,000.0,038.8,031.4,33.9,0000.0,0011.46,0007.22,0006.68
2023-07-10 01:42:00,SystemResetWarning,0832.2,5.01,000.00,031.4,027.9,000.0,038.8,031.5,34.0,-000.5,0011.55,0007.29,0006.71
2023-07-10 01:43:00,SystemResetWarning,0832.2,5.00,000.00,031.4,026.7,000.0,038.8,031.4,34.3,-001.2,0011.66,0007.31,0006.73
2023-07-10 01:44:00,SystemResetWarning,0832.2,5.01,000.00,031.4,025.3,000.0,038.7,031.2,34.5,-000.3,0012.48,0007.35,0006.75
2023-07-10 01:45:00,SystemResetWarning,0832.2,5.01,000.00,031.3,025.0,000.0,038.7,031.0,34.7,0000.0,0012.47,0007.40,0006.78
2023-07-10 01:46:00,SystemResetWarning,0832.1,4.99,000.00,031.2,025.3,000.0,038.8,030.9,35.3,0000.0,0012.16,0007.44,0006.82
2023-07-10 01:47:00,SystemResetWarning,0832.1,5.01,000.00,031.2,025.8,000.0,038.9,031.0,35.4,0000.0,0012.92,0007.49,0006.86
2023-07-10 01:48:00,SystemResetWarning,0832.1,5.02,000.00,031.4,026.2,000.0,038.9,031.2,35.0,0000.0,0013.04,0007.50,0006.89
2023-07-10 01:49:00,SystemResetWarning,0832.2,4.97,000.00,031.7,026.7,000.0,038.9,031.4,34.2,0000.0,0012.84,0007.47,0006.92
2023-07-10 01:50:00,SystemResetWarning,0832.2,5.01,000.00,031.8,027.1,000.0,039.0,031.4,33.7,-001.4,0012.87,0007.48,0006.94
2023-07-10 01:51:00,SystemResetWarning,0832.2,5.01,000.00,031.9,027.4,000.0,039.1,031.5,33.3,-000.9,0013.23,0007.49,0006.97
2023-07-10 01:52:00,SystemResetWarning,0832.2,5.00,000.00,031.9,027.7,000.0,039.2,031.6,32.9,-000.1,0013.36,0007.56,0006.99
2023-07-10 01:53:00,SystemResetWarning,0832.2,5.00,000.00,032.0,027.9,000.0,039.3,031.6,32.6,0000.0,0013.48,0007.58,0007.00
2023-07-10 01:54:00,SystemResetWarning,0832.2,5.00,000.00,032.0,027.0,000.0,039.2,031.6,32.4,0000.0,0013.77,0007.63,0007.02
2023-07-10 01:55:00,SystemResetWarning,0832.2,5.01,000.00,032.0,025.5,000.0,039.2,031.3,32.6,0000.0,0013.00,0007.68,0007.04
2023-07-10 01:56:00,SystemResetWarning,0832.2,5.02,000.00,031.9,025.0,000.0,039.1,031.1,32.7,0000.0,0012.88,0007.66,0007.05
2023-07-10 01:57:00,SystemResetWarning,0832.2,5.00,000.00,031.7,025.2,000.0,039.2,030.9,33.0,0000.0,0013.64,0007.68,0007.06
2023-07-10 01:58:00,SystemResetWarning,0832.2,5.00,000.00,031.5,025.6,000.0,039.2,030.9,33.1,0000.0,0013.72,0007.69,0007.06
2023-07-10 01:59:00,SystemResetWarning,0832.2,5.00,000.00,031.5,026.1,000.0,039.3,031.0,33.0,0000.0,0013.61,0007.71,0007.05
